START_TIME,STEP,MOV.,H8,t_acc.,H43,t_acc.,M25,t_acc.,H9,t_acc.
1979-08-03 09:00:28.250 ,0,0,0.,12.0,0.,12.0,0.,12.0,0.,12.0
1979-08-03 09:00:40.250 ,0,0,0.,12.0,0.,12.0,0.,12.0,0.,12.0
1979-08-03 09:00:52.250 ,0,1,0.,12.0,0.,12.0,0.,12.0,0.,12.0
1979-08-03 09:01:04.250 ,0,1,,0,,0,,0,,0
1979-08-03 09:01:16.250 ,0,0,0.,12.0,0.,12.0,0.,12.0,0.,12.0
1979-08-03 09:01:28.250 ,0,0,0.,12.0,0.,12.0,0.,12.0,0.,12.0
1979-08-03 09:01:40.250 ,1,0,0.,12.0,0.,12.0,0.,12.0,0.,12.0
1979-08-03 09:01:52.250 ,1,0,0.,12.0,0.,12.0,0.,12.0,0.,12.0
1979-08-03 09:02:04.250 ,1,0,0.,12.0,0.,12.0,0.,12.0,0.,12.0
1979-08-03 09:02:16.250 ,1,0,0.,12.0,0.,12.0,0.,12.0,0.,12.0
1979-08-03 09:02:28.250 ,2,0,0.,12.0,0.,12.0,0.,12.0,0.,12.0
1979-08-03 09:02:40.250 ,2,0,0.,12.0,0.,12.0,0.,12.0,0.,12.0
1979-08-03 09:02:52.250 ,2,0,0.,12.0,0.,12.0,0.,12.0,0.,12.0
1979-08-03 09:03:04.250 ,2,0,0.,12.0,0.,12.0,0.,12.0,0.,12.0
1979-08-03 09:03:16.250 ,3,0,0.,12.0,0.,12.0,0.,12.0,0.,12.0
1979-08-03 09:03:28.250 ,3,0,0.,12.0,0.,12.0,0.,12.0,0.,12.0
1979-08-03 09:03:40.250 ,3,0,0.,12.0,0.,12.0,0.,12.0,0.,12.0
1979-08-03 09:03:52.250 ,3,0,0.,12.0,0.,12.0,0.,12.0,0.,12.0
1979-08-03 09:04:04.250 ,4,0,0.,12.0,0.,12.0,0.,12.0,0.,12.0
1979-08-03 09:04:16.250 ,4,0,0.,12.0,0.,12.0,0.,12.0,0.,12.0
1979-08-03 09:04:28.250 ,4,0,0.,12.0,0.,12.0,0.,12.0,0.,12.0
1979-08-03 09:04:40.250 ,4,0,0.,12.0,0.,12.0,0.,12.0,0.,12.0
1979-08-03 09:04:52.250 ,5,0,0.,12.0,0.,12.0,0.,12.0,0.,12.0
1979-08-03 09:05:04.250 ,5,0,0.,12.0,0.,12.0,0.,12.0,0.,12.0
1979-08-03 09:05:16.250 ,5,0,0.,12.0,0.,12.0,0.,12.0,0.,12.0
1979-08-03 09:05:28.250 ,5,0,0.,12.0,0.,12.0,0.,12.0,0.,12.0
1979-08-03 09:05:40.250 ,6,0,0.,12.0,0.,12.0,0.,12.0,0.,12.0
1979-08-03 09:05:52.250 ,6,0,0.,12.0,0.,12.0,0.,12.0,0.,12.0
1979-08-03 09:06:04.250 ,6,0,0.,12.0,0.,12.0,0.,12.0,0.,12.0
1979-08-03 09:06:16.250 ,6,0,0.,12.0,0.,12.0,0.,12.0,0.,12.0
1979-08-03 09:06:28.250 ,0,0,,0,,0,,0,,0
1979-08-03 09:06:40.250 ,0,0,,0,,0,,0,,0
1979-08-03 09:06:52.250 ,0,0,,0,,0,,0,,0
1979-08-03 09:07:04.250 ,0,0,,0,,0,,0,,0
1979-08-03 09:08:19.250 ,0,0,,0,,0,,0,,0
1979-08-03 09:08:31.250 ,0,0,0.,12.0,0.,12.0,0.,12.0,0.,12.0
1979-08-03 09:08:28.250 ,7,1,0.,12.0,0.,12.0,0.,12.0,0.,12.0
1979-08-03 09:08:40.250 ,7,1,0.,12.0,0.,12.0,0.,12.0,0.,12.0
1979-08-03 09:08:52.250 ,3,1,0.,12.0,0.,12.0,0.,12.0,0.,12.0
1979-08-03 09:09:04.250 ,3,1,0.,12.0,0.,12.0,0.,12.0,0.,12.0
1979-08-03 09:09:16.250 ,0,1,0.,12.0,0.,12.0,0.,12.0,0.,12.0
1979-08-03 09:09:28.250 ,0,1,0.,12.0,0.,12.0,0.,12.0,0.,12.0
1979-08-03 09:09:40.250 ,4,1,0.,12.0,0.,12.0,0.,12.0,0.,12.0
1979-08-03 09:09:52.250 ,4,1,0.,12.0,0.,12.0,0.,12.0,0.,12.0
1979-08-03 09:10:04.250 ,7,1,0.,12.0,0.,12.0,0.,12.0,0.,12.0
1979-08-03 09:10:16.250 ,7,1,0.,12.0,0.,12.0,0.,12.0,0.,12.0
1979-08-03 09:10:28.250 ,3,1,0.,12.0,0.,12.0,0.,12.0,0.,12.0
1979-08-03 09:10:40.250 ,3,1,0.,12.0,0.,12.0,0.,12.0,0.,12.0
1979-08-03 09:10:52.250 ,0,1,0.,12.0,0.,12.0,0.,12.0,0.,12.0
1979-08-03 09:11:04.250 ,0,1,0.,12.0,0.,12.0,0.,12.0,0.,12.0
1979-08-03 09:11:16.250 ,4,1,0.,12.0,0.,12.0,0.,12.0,0.,12.0
1979-08-03 09:11:28.250 ,4,1,0.,12.0,0.,12.0,0.,12.0,0.,12.0
1979-08-03 09:11:40.250 ,7,1,0.,12.0,0.,12.0,0.,12.0,0.,12.0
1979-08-03 09:11:52.250 ,7,1,0.,12.0,0.,12.0,0.,12.0,0.,12.0
1979-08-03 09:12:04.250 ,3,1,0.,12.0,0.,12.0,0.,12.0,0.,12.0
1979-08-03 09:12:16.250 ,3,1,0.,12.0,0.,12.0,0.,12.0,0.,12.0
1979-08-03 09:12:28.250 ,0,1,0.,12.0,0.,12.0,0.,12.0,0.,12.0
1979-08-03 09:12:40.250 ,0,1,0.,12.0,0.,12.0,0.,12.0,0.,12.0
1979-08-03 09:12:52.250 ,4,1,0.,12.0,0.,12.0,0.,12.0,0.,12.0
1979-08-03 09:13:04.250 ,4,1,0.,12.0,0.,12.0,0.,12.0,0.,12.0
1979-08-03 09:13:16.250 ,7,1,0.,12.0,0.,12.0,0.,12.0,0.,12.0
1979-08-03 09:13:28.250 ,7,1,0.,12.0,0.,12.0,0.,12.0,0.,12.0
1979-08-03 09:13:40.250 ,3,1,0.,12.0,0.,12.0,0.,12.0,0.,12.0
1979-08-03 09:13:52.250 ,3,1,0.,12.0,0.,12.0,0.,12.0,0.,12.0
1979-08-03 09:14:04.250 ,0,1,0.,12.0,0.,12.0,0.,12.0,0.,12.0
1979-08-03 09:14:16.250 ,0,1,0.,12.0,0.,12.0,0.,12.0,0.,12.0
1979-08-03 09:14:28.250 ,4,1,0.,12.0,0.,12.0,0.,12.0,0.,12.0
1979-08-03 09:14:40.250 ,4,1,0.,12.0,0.,12.0,0.,12.0,0.,12.0
1979-08-03 09:14:52.250 ,7,1,0.,12.0,0.,12.0,0.,12.0,0.,12.0
1979-08-03 09:15:04.250 ,7,1,0.,12.0,0.,12.0,0.,12.0,0.,12.0
1979-08-03 09:15:16.250 ,3,1,0.,12.0,0.,12.0,0.,12.0,0.,12.0
1979-08-03 09:15:28.250 ,3,1,0.,12.0,0.,12.0,0.,12.0,0.,12.0
1979-08-03 09:15:40.250 ,0,1,0.,12.0,0.,12.0,0.,12.0,0.,12.0
1979-08-03 09:15:52.250 ,0,1,0.,12.0,0.,12.0,0.,12.0,0.,12.0
1979-08-03 09:16:04.250 ,4,1,0.,12.0,0.,12.0,0.,12.0,0.,12.0
1979-08-03 09:16:16.250 ,4,1,0.,12.0,0.,12.0,0.,12.0,0.,12.0
1979-08-03 09:16:28.250 ,7,1,0.,12.0,0.,12.0,0.,12.0,0.,12.0
1979-08-03 09:16:40.250 ,7,1,0.,12.0,0.,12.0,0.,12.0,0.,12.0
1979-08-03 09:16:52.250 ,3,1,0.,12.0,0.,12.0,0.,12.0,0.,12.0
1979-08-03 09:17:04.250 ,3,1,0.,12.0,0.,12.0,0.,12.0,0.,12.0
1979-08-03 09:17:16.250 ,0,1,0.,12.0,0.,12.0,0.,12.0,0.,12.0
1979-08-03 09:17:28.250 ,0,1,0.,12.0,0.,12.0,0.,12.0,0.,12.0
1979-08-03 09:17:40.250 ,0,0,0.,12.0,0.,12.0,0.,12.0,0.,12.0
1979-08-03 09:17:52.250 ,0,0,0.,12.0,0.,12.0,0.,12.0,0.,12.0
1979-08-03 09:18:04.250 ,0,0,0.,12.0,0.,12.0,0.,12.0,0.,12.0
1979-08-03 09:18:16.250 ,0,0,0.,12.0,0.,12.0,0.,12.0,0.,12.0
1979-08-03 09:18:28.250 ,5,0,0.,12.0,0.,12.0,0.,12.0,0.,12.0
1979-08-03 09:18:40.250 ,5,0,0.,12.0,0.,12.0,0.,12.0,0.,12.0
1979-08-03 09:18:52.250 ,5,0,0.,12.0,0.,12.0,0.,12.0,0.,12.0
1979-08-03 09:19:04.250 ,5,0,0.,12.0,0.,12.0,0.,12.0,0.,12.0
1979-08-03 09:19:16.250 ,4,0,0.,12.0,0.,12.0,0.,12.0,0.,12.0
1979-08-03 09:19:28.250 ,4,0,0.,12.0,0.,12.0,0.,12.0,0.,12.0
1979-08-03 09:19:40.250 ,4,0,0.,12.0,0.,12.0,0.,12.0,0.,12.0
1979-08-03 09:19:52.250 ,4,0,0.,12.0,0.,12.0,0.,12.0,0.,12.0
1979-08-03 09:20:04.250 ,3,0,0.,12.0,0.,12.0,0.,12.0,0.,12.0
1979-08-03 09:20:16.250 ,3,0,0.,12.0,0.,12.0,0.,12.0,0.,12.0
1979-08-03 09:20:28.250 ,3,0,0.,12.0,0.,12.0,0.,12.0,0.,12.0
1979-08-03 09:20:40.250 ,3,0,0.,12.0,0.,12.0,0.,12.0,0.,12.0
1979-08-03 09:20:52.250 ,2,1,0.,12.0,0.,12.0,0.,12.0,0.,12.0
1979-08-03 09:21:04.250 ,2,1,,0,,0,,0,,0
1979-08-03 09:21:16.250 ,2,0,0.,12.0,0.,12.0,0.,12.0,0.,12.0
1979-08-03 09:21:28.250 ,2,0,0.,12.0,0.,12.0,0.,12.0,0.,12.0
1979-08-03 09:21:40.250 ,1,0,0.,12.0,0.,12.0,0.,12.0,0.,12.0
1979-08-03 09:21:52.250 ,1,0,0.,12.0,0.,12.0,0.,12.0,0.,12.0
1979-08-03 09:22:04.250 ,1,0,0.,12.0,0.,12.0,0.,12.0,0.,12.0
1979-08-03 09:22:16.250 ,1,0,0.,12.0,0.,12.0,0.,12.0,0.,12.0
1979-08-03 09:22:28.250 ,0,0,0.,12.0,0.,12.0,0.,12.0,0.,12.0
1979-08-03 09:22:40.250 ,0,0,0.,12.0,0.,12.0,0.,12.0,0.,12.0
1979-08-03 09:22:52.250 ,0,0,0.,12.0,0.,12.0,0.,12.0,0.,12.0
1979-08-03 09:23:04.250 ,0,0,0.,12.0,0.,12.0,0.,12.0,0.,12.0
1979-08-03 09:23:16.250 ,0,0,0.,12.0,0.,12.0,0.,12.0,0.,12.0
1979-08-03 09:23:28.250 ,0,0,0.,12.0,0.,12.0,0.,12.0,0.,12.0
1979-08-03 09:23:40.250 ,0,0,0.,12.0,0.,12.0,0.,12.0,0.,12.0
1979-08-03 09:23:52.250 ,0,0,0.,12.0,0.,12.0,0.,12.0,0.,12.0
1979-08-03 09:24:04.250 ,1,0,0.,12.0,0.,12.0,0.,12.0,0.,12.0
1979-08-03 09:24:16.250 ,1,0,0.,12.0,0.,12.0,0.,12.0,0.,12.0
1979-08-03 09:24:28.250 ,1,0,0.,12.0,0.,12.0,0.,12.0,0.,12.0
1979-08-03 09:24:40.250 ,1,0,0.,12.0,0.,12.0,0.,12.0,0.,12.0
1979-08-03 09:24:52.250 ,2,0,0.,12.0,0.,12.0,0.,12.0,0.,12.0
1979-08-03 09:25:04.250 ,2,0,0.,12.0,0.,12.0,0.,12.0,0.,12.0
1979-08-03 09:25:16.250 ,2,0,0.,12.0,0.,12.0,0.,12.0,0.,12.0
1979-08-03 09:25:28.250 ,2,0,0.,12.0,0.,12.0,0.,12.0,0.,12.0
1979-08-03 09:25:40.250 ,3,0,0.,12.0,0.,12.0,0.,12.0,0.,12.0
1979-08-03 09:25:52.250 ,3,0,0.,12.0,0.,12.0,0.,12.0,0.,12.0
1979-08-03 09:26:04.250 ,3,0,0.,12.0,0.,12.0,0.,12.0,0.,12.0
1979-08-03 09:26:16.250 ,3,0,0.,12.0,0.,12.0,0.,12.0,0.,12.0
1979-08-03 09:26:28.250 ,4,0,0.,12.0,0.,12.0,0.,12.0,0.,12.0
1979-08-03 09:26:40.250 ,4,0,0.,12.0,0.,12.0,0.,12.0,0.,12.0
1979-08-03 09:26:52.250 ,4,0,0.,12.0,0.,12.0,0.,12.0,0.,12.0
1979-08-03 09:27:04.250 ,4,0,0.,12.0,0.,12.0,0.,12.0,0.,12.0
1979-08-03 09:27:16.250 ,5,0,0.,12.0,0.,12.0,0.,12.0,0.,12.0
1979-08-03 09:27:28.250 ,5,0,0.,12.0,0.,12.0,0.,12.0,0.,12.0
1979-08-03 09:27:40.250 ,5,0,0.,12.0,0.,12.0,0.,12.0,0.,12.0
1979-08-03 09:27:52.250 ,5,0,0.,12.0,0.,12.0,0.,12.0,0.,12.0
1979-08-03 09:28:04.250 ,6,0,0.,12.0,0.,12.0,0.,12.0,0.,12.0
1979-08-03 09:28:16.250 ,6,0,0.,12.0,0.,12.0,0.,12.0,0.,12.0
1979-08-03 09:28:28.250 ,6,0,0.,12.0,0.,12.0,0.,12.0,0.,12.0
1979-08-03 09:28:40.250 ,6,0,0.,12.0,0.,12.0,0.,12.0,0.,12.0
1979-08-03 09:28:52.250 ,7,0,0.,12.0,0.,12.0,0.,12.0,0.,12.0
1979-08-03 09:29:04.250 ,7,0,0.,12.0,0.,12.0,0.,12.0,0.,12.0
1979-08-03 09:29:16.250 ,7,0,0.,12.0,0.,12.0,0.,12.0,0.,12.0
1979-08-03 09:29:28.250 ,7,0,0.,12.0,0.,12.0,0.,12.0,0.,12.0
1979-08-03 09:29:40.250 ,7,0,0.,12.0,0.,12.0,0.,12.0,0.,12.0
1979-08-03 09:29:52.250 ,7,0,0.,12.0,0.,12.0,0.,12.0,0.,12.0
1979-08-03 09:30:04.250 ,7,0,0.,12.0,0.,12.0,0.,12.0,0.,12.0
1979-08-03 09:30:16.250 ,7,0,0.,12.0,0.,12.0,0.,12.0,0.,12.0
1979-08-03 09:30:28.250 ,6,0,0.,12.0,0.,12.0,0.,12.0,0.,12.0
1979-08-03 09:30:40.250 ,6,0,0.,12.0,0.,12.0,0.,12.0,0.,12.0
1979-08-03 09:30:52.250 ,6,0,0.,12.0,0.,12.0,0.,12.0,0.,12.0
1979-08-03 09:31:04.250 ,6,0,0.,12.0,0.,12.0,0.,12.0,0.,12.0
1979-08-03 09:31:16.250 ,5,0,0.,12.0,0.,12.0,0.,12.0,0.,12.0
1979-08-03 09:31:28.250 ,5,0,0.,12.0,0.,12.0,0.,12.0,0.,12.0
1979-08-03 09:31:40.250 ,5,0,0.,12.0,0.,12.0,0.,12.0,0.,12.0
1979-08-03 09:31:52.250 ,5,0,0.,12.0,0.,12.0,0.,12.0,0.,12.0
1979-08-03 09:32:04.250 ,4,0,0.,12.0,0.,12.0,0.,12.0,0.,12.0
1979-08-03 09:32:16.250 ,4,0,0.,12.0,1.,12.0,0.,12.0,0.,12.0
1979-08-03 09:32:28.250 ,4,0,0.,12.0,0.,12.0,0.,12.0,0.,12.0
1979-08-03 09:32:40.250 ,4,0,0.,12.0,0.,12.0,0.,12.0,0.,12.0
1979-08-03 09:32:52.250 ,3,0,0.,12.0,0.,12.0,0.,12.0,0.,12.0
1979-08-03 09:33:04.250 ,3,0,0.,12.0,0.,12.0,0.,12.0,0.,12.0
1979-08-03 09:33:16.250 ,3,0,0.,12.0,0.,12.0,0.,12.0,0.,12.0
1979-08-03 09:33:28.250 ,3,0,0.,12.0,0.,12.0,0.,12.0,0.,12.0
1979-08-03 09:33:40.250 ,2,0,0.,12.0,0.,12.0,0.,12.0,0.,12.0
1979-08-03 09:33:52.250 ,2,0,0.,12.0,0.,12.0,0.,12.0,0.,12.0
1979-08-03 09:34:04.250 ,2,0,0.,12.0,0.,12.0,0.,12.0,0.,12.0
1979-08-03 09:34:16.250 ,2,0,0.,12.0,0.,12.0,0.,12.0,0.,12.0
1979-08-03 09:34:28.250 ,1,0,0.,12.0,0.,12.0,0.,12.0,0.,12.0
1979-08-03 09:34:40.250 ,1,0,0.,12.0,0.,12.0,0.,12.0,0.,12.0
1979-08-03 09:34:52.250 ,1,0,0.,12.0,0.,12.0,0.,12.0,0.,12.0
1979-08-03 09:35:04.250 ,1,0,0.,12.0,0.,12.0,0.,12.0,0.,12.0
1979-08-03 09:35:16.250 ,0,0,0.,12.0,0.,12.0,0.,12.0,0.,12.0
1979-08-03 09:35:28.250 ,0,0,0.,12.0,0.,12.0,0.,12.0,0.,12.0
1979-08-03 09:35:40.250 ,0,0,0.,12.0,0.,12.0,0.,12.0,0.,12.0
1979-08-03 09:35:52.250 ,0,0,0.,12.0,0.,12.0,0.,12.0,0.,12.0
1979-08-03 09:36:04.250 ,0,0,0.,12.0,0.,12.0,0.,12.0,0.,12.0
1979-08-03 09:36:16.250 ,0,0,0.,12.0,0.,12.0,0.,12.0,0.,12.0
1979-08-03 09:36:28.250 ,0,0,0.,12.0,0.,12.0,0.,12.0,0.,12.0
1979-08-03 09:36:40.250 ,0,0,0.,12.0,0.,12.0,0.,12.0,0.,12.0
1979-08-03 09:36:52.250 ,1,0,0.,12.0,0.,12.0,0.,12.0,0.,12.0
1979-08-03 09:37:04.250 ,1,0,0.,12.0,0.,12.0,0.,12.0,0.,12.0
1979-08-03 09:37:16.250 ,1,0,0.,12.0,0.,12.0,0.,12.0,0.,12.0
1979-08-03 09:37:28.250 ,1,0,0.,12.0,0.,12.0,0.,12.0,0.,12.0
1979-08-03 09:37:40.250 ,2,0,0.,12.0,0.,12.0,0.,12.0,0.,12.0
1979-08-03 09:37:52.250 ,2,0,0.,12.0,0.,12.0,0.,12.0,0.,12.0
1979-08-03 09:38:04.250 ,2,0,0.,12.0,0.,12.0,0.,12.0,0.,12.0
1979-08-03 09:38:16.250 ,2,0,0.,12.0,0.,12.0,0.,12.0,0.,12.0
1979-08-03 09:38:28.250 ,3,0,0.,12.0,0.,12.0,0.,12.0,0.,12.0
1979-08-03 09:38:40.250 ,3,0,0.,12.0,0.,12.0,0.,12.0,0.,12.0
1979-08-03 09:38:52.250 ,3,0,1.,12.0,0.,12.0,0.,12.0,0.,12.0
1979-08-03 09:39:04.250 ,3,0,0.,12.0,0.,12.0,0.,12.0,0.,12.0
1979-08-03 09:39:16.250 ,4,0,0.,12.0,0.,12.0,0.,12.0,0.,12.0
1979-08-03 09:39:28.250 ,4,0,0.,12.0,0.,12.0,0.,12.0,0.,12.0
1979-08-03 09:39:40.250 ,4,0,0.,12.0,0.,12.0,0.,12.0,0.,12.0
1979-08-03 09:39:52.250 ,4,0,0.,12.0,0.,12.0,0.,12.0,0.,12.0
1979-08-03 09:40:04.250 ,5,0,0.,12.0,0.,12.0,0.,12.0,0.,12.0
1979-08-03 09:40:16.250 ,5,0,0.,12.0,0.,12.0,0.,12.0,0.,12.0
1979-08-03 09:40:28.250 ,5,0,0.,12.0,0.,12.0,0.,12.0,0.,12.0
1979-08-03 09:40:40.250 ,5,0,0.,12.0,0.,12.0,0.,12.0,0.,12.0
1979-08-03 09:40:52.250 ,6,0,0.,12.0,0.,12.0,0.,12.0,0.,12.0
1979-08-03 09:41:04.250 ,6,0,0.,12.0,0.,12.0,0.,12.0,0.,12.0
1979-08-03 09:41:16.250 ,6,0,0.,12.0,0.,12.0,0.,12.0,0.,12.0
1979-08-03 09:41:28.250 ,6,0,0.,12.0,0.,12.0,0.,12.0,0.,12.0
1979-08-03 09:41:40.250 ,7,0,0.,12.0,0.,12.0,0.,12.0,0.,12.0
1979-08-03 09:41:52.250 ,7,0,0.,12.0,0.,12.0,0.,12.0,0.,12.0
1979-08-03 09:42:04.250 ,7,0,0.,12.0,0.,12.0,0.,12.0,0.,12.0
1979-08-03 09:42:16.250 ,7,0,0.,12.0,0.,12.0,0.,12.0,0.,12.0
1979-08-03 09:42:28.250 ,7,0,0.,12.0,0.,12.0,0.,12.0,0.,12.0
1979-08-03 09:42:40.250 ,7,0,0.,12.0,0.,12.0,0.,12.0,0.,12.0
1979-08-03 09:42:52.250 ,7,0,0.,12.0,0.,12.0,0.,12.0,0.,12.0
1979-08-03 09:43:04.250 ,7,0,0.,12.0,0.,12.0,0.,12.0,0.,12.0
1979-08-03 09:43:16.250 ,6,0,0.,12.0,0.,12.0,0.,12.0,0.,12.0
1979-08-03 09:43:28.250 ,6,0,0.,12.0,0.,12.0,0.,12.0,0.,12.0
1979-08-03 09:43:40.250 ,6,0,0.,12.0,0.,12.0,0.,12.0,0.,12.0
1979-08-03 09:43:52.250 ,6,0,0.,12.0,0.,12.0,0.,12.0,0.,12.0
1979-08-03 09:44:04.250 ,5,0,0.,12.0,0.,12.0,0.,12.0,0.,12.0
1979-08-03 09:44:16.250 ,5,0,0.,12.0,0.,12.0,0.,12.0,0.,12.0
1979-08-03 09:44:28.250 ,5,0,0.,12.0,0.,12.0,0.,12.0,0.,12.0
1979-08-03 09:44:40.250 ,5,0,0.,12.0,0.,12.0,0.,12.0,0.,12.0
1979-08-03 09:44:52.250 ,4,0,0.,12.0,0.,12.0,0.,12.0,0.,12.0
1979-08-03 09:45:04.250 ,4,0,0.,12.0,0.,12.0,0.,12.0,0.,12.0
1979-08-03 09:45:16.250 ,4,0,0.,12.0,0.,12.0,0.,12.0,0.,12.0
1979-08-03 09:45:28.250 ,4,0,0.,12.0,0.,12.0,0.,12.0,0.,12.0
1979-08-03 09:45:40.250 ,3,0,0.,12.0,0.,12.0,0.,12.0,0.,12.0
1979-08-03 09:45:52.250 ,3,0,0.,12.0,0.,12.0,0.,12.0,0.,12.0
1979-08-03 09:46:04.250 ,3,0,0.,12.0,0.,12.0,0.,12.0,0.,12.0
1979-08-03 09:46:16.250 ,3,0,0.,12.0,0.,12.0,0.,12.0,0.,12.0
1979-08-03 09:46:28.250 ,2,0,0.,12.0,0.,12.0,0.,12.0,0.,12.0
1979-08-03 09:46:40.250 ,2,0,0.,12.0,0.,12.0,0.,12.0,0.,12.0
1979-08-03 09:46:52.250 ,2,0,0.,12.0,0.,12.0,0.,12.0,0.,12.0
1979-08-03 09:47:04.250 ,2,0,0.,12.0,0.,12.0,0.,12.0,0.,12.0
1979-08-03 09:47:16.250 ,1,0,0.,12.0,0.,12.0,0.,12.0,0.,12.0
1979-08-03 09:47:28.250 ,1,0,0.,12.0,0.,12.0,0.,12.0,0.,12.0
1979-08-03 09:47:40.250 ,1,0,0.,12.0,0.,12.0,0.,12.0,0.,12.0
1979-08-03 09:47:52.250 ,1,0,0.,12.0,0.,12.0,0.,12.0,0.,12.0
1979-08-03 09:48:04.250 ,0,0,0.,12.0,0.,12.0,0.,12.0,0.,12.0
1979-08-03 09:48:16.250 ,0,0,0.,12.0,0.,12.0,0.,12.0,0.,12.0
1979-08-03 09:48:28.250 ,0,0,0.,12.0,0.,12.0,0.,12.0,0.,12.0
1979-08-03 09:48:40.250 ,0,0,0.,12.0,0.,12.0,0.,12.0,0.,12.0
1979-08-03 09:48:52.250 ,0,0,0.,12.0,0.,12.0,0.,12.0,0.,12.0
1979-08-03 09:49:04.250 ,0,0,0.,12.0,0.,12.0,0.,12.0,0.,12.0
1979-08-03 09:49:16.250 ,0,0,0.,12.0,0.,12.0,0.,12.0,0.,12.0
1979-08-03 09:49:28.250 ,0,0,0.,12.0,0.,12.0,0.,12.0,0.,12.0
1979-08-03 09:49:40.250 ,1,0,0.,12.0,0.,12.0,0.,12.0,0.,12.0
1979-08-03 09:49:52.250 ,1,0,0.,12.0,0.,12.0,0.,12.0,0.,12.0
1979-08-03 09:50:04.250 ,1,0,0.,12.0,0.,12.0,0.,12.0,0.,12.0
1979-08-03 09:50:16.250 ,1,0,0.,12.0,0.,12.0,0.,12.0,0.,12.0
1979-08-03 09:50:28.250 ,2,0,0.,12.0,0.,12.0,0.,12.0,0.,12.0
1979-08-03 09:50:40.250 ,2,0,0.,12.0,0.,12.0,0.,12.0,0.,12.0
1979-08-03 09:50:52.250 ,2,0,0.,12.0,0.,12.0,0.,12.0,0.,12.0
1979-08-03 09:51:04.250 ,2,0,0.,12.0,0.,12.0,0.,12.0,0.,12.0
1979-08-03 09:51:16.250 ,3,0,0.,12.0,0.,12.0,0.,12.0,0.,12.0
1979-08-03 09:51:28.250 ,3,0,0.,12.0,0.,12.0,0.,12.0,0.,12.0
1979-08-03 09:51:40.250 ,3,0,0.,12.0,0.,12.0,0.,12.0,0.,12.0
1979-08-03 09:51:52.250 ,3,0,0.,12.0,0.,12.0,0.,12.0,0.,12.0
1979-08-03 09:52:04.250 ,4,0,0.,12.0,0.,12.0,0.,12.0,0.,12.0
1979-08-03 09:52:16.250 ,4,0,0.,12.0,0.,12.0,0.,12.0,0.,12.0
1979-08-03 09:52:28.250 ,4,0,0.,12.0,0.,12.0,0.,12.0,0.,12.0
1979-08-03 09:52:40.250 ,4,0,0.,12.0,0.,12.0,0.,12.0,0.,12.0
1979-08-03 09:52:52.250 ,5,0,0.,12.0,0.,12.0,0.,12.0,0.,12.0
1979-08-03 09:53:04.250 ,5,0,0.,12.0,0.,12.0,0.,12.0,0.,12.0
1979-08-03 09:53:16.250 ,5,0,0.,12.0,0.,12.0,0.,12.0,0.,12.0
1979-08-03 09:53:28.250 ,5,0,0.,12.0,0.,12.0,0.,12.0,0.,12.0
1979-08-03 09:53:40.250 ,6,0,0.,12.0,0.,12.0,0.,12.0,0.,12.0
1979-08-03 09:53:52.250 ,6,0,0.,12.0,0.,12.0,0.,12.0,0.,12.0
1979-08-03 09:54:04.250 ,6,0,0.,12.0,0.,12.0,0.,12.0,0.,12.0
1979-08-03 09:54:16.250 ,6,0,0.,12.0,0.,12.0,0.,12.0,0.,12.0
1979-08-03 09:54:28.250 ,7,0,0.,12.0,0.,12.0,0.,12.0,0.,12.0
1979-08-03 09:54:40.250 ,7,0,0.,12.0,0.,12.0,0.,12.0,0.,12.0
1979-08-03 09:54:52.250 ,7,0,0.,12.0,0.,12.0,0.,12.0,0.,12.0
1979-08-03 09:55:04.250 ,7,0,0.,12.0,0.,12.0,0.,12.0,0.,12.0
1979-08-03 09:55:16.250 ,3,1,0.,12.0,0.,12.0,0.,12.0,0.,12.0
1979-08-03 09:55:28.250 ,3,1,0.,12.0,0.,12.0,0.,12.0,0.,12.0
1979-08-03 09:55:40.250 ,0,1,0.,12.0,0.,12.0,0.,12.0,0.,12.0
1979-08-03 09:55:52.250 ,0,1,0.,12.0,0.,12.0,0.,12.0,0.,12.0
1979-08-03 09:56:04.250 ,4,1,0.,12.0,0.,12.0,0.,12.0,0.,12.0
1979-08-03 09:56:16.250 ,4,1,0.,12.0,0.,12.0,0.,12.0,0.,12.0
1979-08-03 09:56:28.250 ,7,1,0.,12.0,0.,12.0,0.,12.0,0.,12.0
1979-08-03 09:56:40.250 ,7,1,0.,12.0,0.,12.0,0.,12.0,0.,12.0
1979-08-03 09:56:52.250 ,3,1,0.,12.0,0.,12.0,0.,12.0,0.,12.0
1979-08-03 09:57:04.250 ,3,1,0.,12.0,0.,12.0,0.,12.0,0.,12.0
1979-08-03 09:57:16.250 ,0,1,0.,12.0,0.,12.0,0.,12.0,0.,12.0
1979-08-03 09:57:28.250 ,0,1,0.,12.0,0.,12.0,0.,12.0,0.,12.0
1979-08-03 09:57:40.250 ,4,1,0.,12.0,0.,12.0,0.,12.0,0.,12.0
1979-08-03 09:57:52.250 ,4,1,0.,12.0,0.,12.0,0.,12.0,0.,12.0
1979-08-03 09:58:04.250 ,7,1,0.,12.0,0.,12.0,0.,12.0,0.,12.0
1979-08-03 09:58:16.250 ,7,1,0.,12.0,0.,12.0,0.,12.0,0.,12.0
1979-08-03 09:58:28.250 ,3,1,0.,12.0,0.,12.0,0.,12.0,0.,12.0
1979-08-03 09:58:40.250 ,3,1,0.,12.0,0.,12.0,0.,12.0,0.,12.0
1979-08-03 09:58:52.250 ,0,1,0.,12.0,0.,12.0,0.,12.0,0.,12.0
1979-08-03 09:59:04.250 ,0,1,0.,12.0,0.,12.0,0.,12.0,0.,12.0
1979-08-03 09:59:16.250 ,4,1,0.,12.0,0.,12.0,0.,12.0,0.,12.0
1979-08-03 09:59:28.250 ,4,1,0.,12.0,0.,12.0,0.,12.0,0.,12.0
1979-08-03 09:59:40.250 ,7,1,0.,12.0,0.,12.0,0.,12.0,0.,12.0
1979-08-03 09:59:52.250 ,7,1,0.,12.0,0.,12.0,0.,12.0,0.,12.0
1979-08-03 10:00:04.250 ,3,1,0.,12.0,0.,12.0,0.,12.0,0.,12.0
1979-08-03 10:00:16.250 ,3,1,0.,12.0,0.,12.0,0.,12.0,0.,12.0
1979-08-03 10:00:28.250 ,0,1,0.,12.0,0.,12.0,0.,12.0,0.,12.0
1979-08-03 10:00:40.250 ,0,1,0.,12.0,0.,12.0,0.,12.0,0.,12.0
1979-08-03 10:00:52.250 ,4,1,0.,12.0,0.,12.0,0.,12.0,0.,12.0
1979-08-03 10:01:04.250 ,4,1,0.,12.0,0.,12.0,0.,12.0,0.,12.0
1979-08-03 10:01:16.250 ,7,1,0.,12.0,0.,12.0,0.,12.0,0.,12.0
1979-08-03 10:01:28.250 ,7,1,0.,12.0,0.,12.0,0.,12.0,0.,12.0
1979-08-03 10:01:40.250 ,3,1,0.,12.0,0.,12.0,0.,12.0,0.,12.0
1979-08-03 10:01:52.250 ,3,1,0.,12.0,0.,12.0,0.,12.0,0.,12.0
1979-08-03 10:02:04.250 ,0,1,0.,12.0,0.,12.0,0.,12.0,0.,12.0
1979-08-03 10:02:16.250 ,0,1,0.,12.0,0.,12.0,0.,12.0,0.,12.0
1979-08-03 10:02:28.250 ,4,1,0.,12.0,0.,12.0,0.,12.0,0.,12.0
1979-08-03 10:02:40.250 ,4,1,0.,12.0,0.,12.0,0.,12.0,0.,12.0
1979-08-03 10:02:52.250 ,7,1,0.,12.0,0.,12.0,0.,12.0,0.,12.0
1979-08-03 10:03:04.250 ,7,1,0.,12.0,0.,12.0,0.,12.0,0.,12.0
1979-08-03 10:03:16.250 ,3,1,0.,12.0,0.,12.0,0.,12.0,0.,12.0
1979-08-03 10:03:28.250 ,3,1,0.,12.0,0.,12.0,0.,12.0,0.,12.0
1979-08-03 10:03:40.250 ,1,1,0.,12.0,0.,12.0,0.,12.0,0.,12.0
1979-08-03 10:03:52.250 ,1,1,,0,,0,,0,,0
1979-08-03 10:04:05.450 ,4,1,0.,12.0,0.,12.0,0.,12.0,0.,12.0
1979-08-03 10:04:17.450 ,4,1,0.,12.0,0.,12.0,0.,12.0,0.,12.0
1979-08-03 10:04:28.250 ,7,1,0.,12.0,0.,12.0,0.,12.0,0.,12.0
1979-08-03 10:04:40.250 ,7,1,0.,12.0,0.,12.0,0.,12.0,0.,12.0
1979-08-03 10:04:52.250 ,0,0,0.,12.0,0.,12.0,0.,12.0,0.,12.0
1979-08-03 10:05:04.250 ,0,0,0.,12.0,0.,12.0,0.,12.0,0.,12.0
1979-08-03 10:05:16.250 ,0,0,0.,12.0,0.,12.0,0.,12.0,0.,12.0
1979-08-03 10:05:28.250 ,0,0,0.,12.0,0.,12.0,0.,12.0,0.,12.0
1979-08-03 10:05:40.250 ,0,0,0.,12.0,0.,12.0,0.,12.0,0.,12.0
1979-08-03 10:05:52.250 ,0,0,0.,12.0,0.,12.0,0.,12.0,0.,12.0
1979-08-03 10:06:04.250 ,0,0,0.,12.0,0.,12.0,0.,12.0,0.,12.0
1979-08-03 10:06:16.250 ,0,0,0.,12.0,0.,12.0,0.,12.0,0.,12.0
1979-08-03 10:06:28.250 ,5,0,0.,12.0,0.,12.0,0.,12.0,0.,12.0
1979-08-03 10:06:40.250 ,5,0,0.,12.0,0.,12.0,0.,12.0,0.,12.0
1979-08-03 10:06:52.250 ,5,0,0.,12.0,0.,12.0,0.,12.0,0.,12.0
1979-08-03 10:07:04.250 ,5,0,0.,12.0,0.,12.0,0.,12.0,0.,12.0
1979-08-03 10:07:16.250 ,4,0,0.,12.0,0.,12.0,0.,12.0,0.,12.0
1979-08-03 10:07:28.250 ,4,0,0.,12.0,0.,12.0,0.,12.0,0.,12.0
1979-08-03 10:07:40.250 ,4,0,0.,12.0,0.,12.0,0.,12.0,0.,12.0
1979-08-03 10:07:52.250 ,4,0,0.,12.0,0.,12.0,0.,12.0,0.,12.0
1979-08-03 10:08:04.250 ,3,0,0.,12.0,0.,12.0,0.,12.0,0.,12.0
1979-08-03 10:08:16.250 ,3,0,0.,12.0,0.,12.0,0.,12.0,0.,12.0
1979-08-03 10:08:28.250 ,3,0,0.,12.0,0.,12.0,0.,12.0,0.,12.0
1979-08-03 10:08:40.250 ,3,0,0.,12.0,0.,12.0,0.,12.0,0.,12.0
1979-08-03 10:08:52.250 ,2,0,0.,12.0,0.,12.0,0.,12.0,0.,12.0
1979-08-03 10:09:04.250 ,2,0,0.,12.0,0.,12.0,0.,12.0,0.,12.0
1979-08-03 10:09:16.250 ,2,0,0.,12.0,0.,12.0,0.,12.0,0.,12.0
1979-08-03 10:09:28.250 ,2,0,0.,12.0,0.,12.0,0.,12.0,0.,12.0
1979-08-03 10:09:40.250 ,1,0,0.,12.0,0.,12.0,0.,12.0,0.,12.0
1979-08-03 10:09:52.250 ,1,0,0.,12.0,0.,12.0,0.,12.0,0.,12.0
1979-08-03 10:10:04.250 ,1,0,0.,12.0,0.,12.0,0.,12.0,0.,12.0
1979-08-03 10:10:16.250 ,1,0,0.,12.0,0.,12.0,0.,12.0,0.,12.0
1979-08-03 10:10:28.250 ,0,0,0.,12.0,0.,12.0,0.,12.0,0.,12.0
1979-08-03 10:10:40.250 ,0,0,0.,12.0,0.,12.0,0.,12.0,0.,12.0
1979-08-03 10:10:52.250 ,0,0,,0,,0,,0,,0
1979-08-03 10:11:04.250 ,0,0,0.,12.0,0.,12.0,0.,12.0,0.,12.0
1979-08-03 10:11:16.250 ,0,0,0.,12.0,0.,12.0,0.,12.0,0.,12.0
1979-08-03 10:11:28.250 ,0,0,0.,12.0,0.,12.0,0.,12.0,0.,12.0
1979-08-03 10:11:40.250 ,0,0,0.,12.0,0.,12.0,0.,12.0,0.,12.0
1979-08-03 10:11:52.250 ,0,0,0.,12.0,0.,12.0,0.,12.0,0.,12.0
1979-08-03 10:12:06.650 ,1,0,0.,12.0,0.,12.0,0.,12.0,0.,12.0
1979-08-03 10:12:18.650 ,1,0,0.,12.0,0.,12.0,0.,12.0,0.,12.0
1979-08-03 10:12:28.250 ,1,0,0.,12.0,0.,12.0,0.,12.0,0.,12.0
1979-08-03 10:12:40.250 ,1,0,0.,12.0,0.,12.0,0.,12.0,0.,12.0
1979-08-03 10:12:52.250 ,2,0,0.,12.0,0.,12.0,0.,12.0,0.,12.0
1979-08-03 10:13:04.250 ,2,0,0.,12.0,0.,12.0,0.,12.0,0.,12.0
1979-08-03 10:13:16.250 ,2,0,0.,12.0,0.,12.0,0.,12.0,0.,12.0
1979-08-03 10:13:28.250 ,2,0,0.,12.0,0.,12.0,0.,12.0,0.,12.0
1979-08-03 10:13:40.250 ,3,0,0.,12.0,0.,12.0,0.,12.0,0.,12.0
1979-08-03 10:13:52.250 ,3,0,0.,12.0,0.,12.0,0.,12.0,0.,12.0
1979-08-03 10:14:04.250 ,3,0,0.,12.0,0.,12.0,0.,12.0,0.,12.0
1979-08-03 10:14:16.250 ,3,0,0.,12.0,0.,12.0,0.,12.0,0.,12.0
1979-08-03 10:14:28.250 ,4,0,0.,12.0,0.,12.0,0.,12.0,0.,12.0
1979-08-03 10:14:40.250 ,4,0,0.,12.0,0.,12.0,0.,12.0,0.,12.0
1979-08-03 10:14:52.250 ,4,0,,0,,0,,0,,0
1979-08-03 10:15:04.250 ,4,0,0.,12.0,0.,12.0,0.,12.0,0.,12.0
1979-08-03 10:15:16.250 ,5,0,0.,12.0,0.,12.0,0.,12.0,0.,12.0
1979-08-03 10:15:28.250 ,5,0,0.,12.0,0.,12.0,0.,12.0,0.,12.0
1979-08-03 10:15:40.250 ,5,0,0.,12.0,0.,12.0,0.,12.0,0.,12.0
1979-08-03 10:15:52.250 ,5,0,0.,12.0,0.,12.0,0.,12.0,0.,12.0
1979-08-03 10:16:04.250 ,6,0,0.,12.0,0.,12.0,0.,12.0,0.,12.0
1979-08-03 10:16:16.250 ,6,0,0.,12.0,0.,12.0,0.,12.0,0.,12.0
1979-08-03 10:16:28.250 ,6,0,0.,12.0,0.,12.0,0.,12.0,0.,12.0
1979-08-03 10:16:40.250 ,6,0,0.,12.0,0.,12.0,0.,12.0,0.,12.0
1979-08-03 10:16:52.250 ,7,0,0.,12.0,0.,12.0,0.,12.0,0.,12.0
1979-08-03 10:17:04.250 ,7,0,0.,12.0,0.,12.0,0.,12.0,0.,12.0
1979-08-03 10:17:16.250 ,7,0,0.,12.0,0.,12.0,0.,12.0,0.,12.0
1979-08-03 10:17:28.250 ,7,0,0.,12.0,0.,12.0,0.,12.0,0.,12.0
1979-08-03 10:17:40.250 ,7,0,0.,12.0,0.,12.0,0.,12.0,0.,12.0
1979-08-03 10:17:52.250 ,7,0,0.,12.0,0.,12.0,0.,12.0,0.,12.0
1979-08-03 10:18:04.250 ,7,0,0.,12.0,0.,12.0,0.,12.0,0.,12.0
1979-08-03 10:18:16.250 ,7,0,0.,12.0,0.,12.0,0.,12.0,0.,12.0
1979-08-03 10:18:28.250 ,6,0,0.,12.0,0.,12.0,0.,12.0,0.,12.0
1979-08-03 10:18:40.250 ,6,0,0.,12.0,0.,12.0,0.,12.0,0.,12.0
1979-08-03 10:18:52.250 ,6,0,0.,12.0,0.,12.0,0.,12.0,0.,12.0